Skip Page Navigation
NASA JPL Caltech
NASA Logo - Jet Propulsion Laboratory + View the NASA Portal
+ Center for Near-Earth Object Studies
JPL Home Earth Solar System Stars & Galaxies Technology
JPL Solar System Dynamics
BODIES ORBITS EPHEMERIDES TOOLS PHYSICAL DATA DISCOVERY FAQ SITE MAP
IMPORTANT: The SSD Announcement email list is now available. Major changes are coming in the near future, including possible hostname and/or URL changes. To be notified of such changes, subscribe to this email list.

Please visit this page for more details.


JPL Small-Body Database Browser
Search: [ help ]  
441721 (2009 BK37)
Classification: Main-belt Asteroid          SPK-ID: 2441721
Ephemeris | Orbit Diagram | Orbital Elements | Mission Design | Physical Parameters | Discovery Circumstances ]

[ show orbit diagram ]
Orbital Elements at Epoch 2458600.5 (2019-Apr-27.0) TDB
Reference: JPL 9 (heliocentric ecliptic J2000)
 Element Value Uncertainty (1-sigma)   Units 
e .1242797577269383 6.9101e-08  
a 2.512946887639813 4.3005e-08 au
q 2.200638457263274 1.625e-07 au
i 3.082783268656486 1.158e-05 deg
node 108.124661394008 0.00020229 deg
peri 296.7019913376487 0.00021144 deg
M 280.1252988687717 6.1265e-05 deg
tp 2458923.334646409109
(2020-Mar-14.83464641)
0.00024885 TDB
period 1455.034836579073
3.98
3.7351e-05
1.023e-07
d
yr
n .2474167565955978 6.3512e-09 deg/d
Q 2.825255318016353 4.835e-08 au
  Orbit Determination Parameters
   # obs. used (total)      67  
   data-arc span      3475 days (9.51 yr)  
   first obs. used      2007-09-11  
   last obs. used      2017-03-17  
   planetary ephem.      DE431  
   SB-pert. ephem.      SB431-N16  
   condition code      0  
   norm. resid. RMS      .75578  
   source      ORB  
   producer      Otto Matic  
   solution date      2017-Apr-09 12:35:37  

Additional Information
 Earth MOID = 1.21142 au 
 Jupiter MOID = 2.53615 au 
 T_jup = 3.448 
[ show covariance matrix ]

Ephemeris | Orbit Diagram | Orbital Elements | Mission Design | Physical Parameters | Discovery Circumstances ]

Physical Parameter Table
Parameter Symbol Value Units Sigma Reference Notes
absolute magnitude H 17.9   n/a MPO361007  

441721 (2009 BK37)          Discovered 2009-Jan-16 by Spacewatch at Kitt Peak
Reference: Last Updated: 2015-09-02

Alternate Designations
 2009 BK37 = 2011 QJ16 
Ephemeris | Orbit Diagram | Orbital Elements | Mission Design | Physical Parameters | Discovery Circumstances ]
ABOUT SSD CREDITS/AWARDS PRIVACY/COPYRIGHT GLOSSARY LINKS
FirstGov
(server date/time)  
NASA Home Page
Site Manager:   Ryan S. Park
Webmaster  Alan B. Chamberlin